Weather in Evdakovo

Russia / Voronezh Oblast     50°45′09″N   39°23′33″E
temp.,
°C
wind,
m/s
gust,
m/s
humid.,
%
clouds,
%
prec.,
mm/h
press.,
hPa
HPBL,
m
25 february, thu
thu2500:00−13ssw51094100 0.4 1037353
03:00−12ssw61194100 0.7 1034362
06:00−10sw61292100 0.3 1032409
09:00−8sw71292100 0.3 1030369
12:00−5sw71192100 0.1 1028431
15:00−2sw71294100 0.1 1024367
18:00−1wsw81495100 0.2 1022429
21:00+2w71398100 0.4 1021331
26 february, fri
fri2600:00+1w61298100 0.3 1020297
03:00+1w61298100 0.6 1021323
06:00+1w51298100 0.1 1020288
09:00+2w51099100 0.1 1020249
12:00+2w611100100 0.0 1018293
15:00+3w81499100 0.0 1017403
18:00+2w81497100 0.0 1015529
21:00+2w61398100 0.3 1014377
27 february, sat
sat2700:00+2w61296100 0.1 1013331
03:00+1w51196100 0.1 1012412
06:00+1w61294100 0.0 1010480
09:00+1w61296100 0.0 1010501
12:00+1wnw61197100 0.1 1009633
15:00+1w61297100 0.1 1009595
18:00+1wnw71197100 0.2 1009594
21:00+1wnw61197100 0.3 1010478
28 february, sun
sun2800:000wnw4898100 0.1 1010373
03:00−1nw489698 0.3 1011318
06:00−1nnw379793 0.1 1012353
09:00−1n469295 0.4 1014521
12:00−2n458097 0.1 1016673
15:00−2nnw578099 0.1 1017743
18:00−3nnw588399 0.0 1018689
21:00−3n5886100 0.1 1021756
1 march, mon
mon100:00−4n488791 0.1 1023699
03:00−4n488994 0.1 1024684
06:00−5n259483 0.0 1025273
09:00−5n598284 0.1 1027687
12:00−3n577557 0.0 1029841
15:00−2nnw457379 0.1 1029888
18:00−3nnw3678100 0.1 1030549
21:00−4nw358495 0.1 1031201